DateTime,F1_A11,F1_S11,BsB_S11,BsG_S11,BsR_S11,BbsB_S11,BbsG_S11,BbsR_S11,BaB_A11,BaG_A11,BaR_A11,T_S11,U_S11,P_S11,T1_A11
2016-07-07T00:00:00Z,0000388,20000608,,,,,,,,,,26.2,05.0,0674.2,34.6
2016-07-07T00:01:00Z,0000388,20000608,,,,,,,,,,26.2,05.0,0674.2,34.6
2016-07-07T00:02:00Z,0000388,20000608,,,,,,,,,,26.2,05.0,0674.2,34.6
2016-07-07T00:03:00Z,0000388,60000608,,,,,,,,,,26.2,05.0,0674.2,34.6
2016-07-07T00:04:00Z,0000388,40000608,0014.94,0010.50,0005.54,0001.71,0001.08,0001.02,0008.91,0007.96,0006.58,26.3,04.8,0675.0,34.6
2016-07-07T00:05:00Z,0000388,00000608,0014.90,0010.66,0005.98,0001.10,0000.94,0000.92,0006.14,0005.40,0004.20,26.3,04.8,0675.0,34.6
2016-07-07T00:06:00Z,0000388,00000608,0021.55,0015.29,0008.90,0002.38,0002.17,0001.22,0030.58,0026.99,0021.14,26.3,04.7,0675.0,34.6
2016-07-07T00:07:00Z,0000388,00000608,0017.32,0010.91,0006.79,0001.74,0000.93,0001.10,0015.50,0013.57,0011.11,26.3,04.6,0675.1,34.6
2016-07-07T00:08:00Z,0000388,00000608,0012.77,0008.84,0005.56,0001.36,0001.11,0001.07,0000.98,0000.94,0000.74,26.3,04.7,0675.0,34.6
2016-07-07T00:09:00Z,0000388,00000608,0014.60,0009.72,0005.68,0001.61,0001.56,0001.02,0006.15,0005.41,0004.15,26.3,04.7,0675.0,34.6
2016-07-07T00:10:00Z,0000388,00000608,0021.85,0015.54,0009.63,0002.96,0001.76,0001.68,0038.10,0033.47,0025.82,26.3,04.7,0675.0,34.6
2016-07-07T00:11:00Z,0000388,00000608,0014.13,0010.16,0005.88,0001.72,0001.46,0000.92,0013.33,0011.87,0009.50,26.3,04.7,0675.0,34.6
2016-07-07T00:12:00Z,0000388,00000608,0013.34,0008.75,0004.87,0001.44,0000.61,0000.97,0001.22,0000.87,0000.85,26.3,04.6,0675.0,34.6
2016-07-07T00:13:00Z,0000388,00000608,0012.46,0007.83,0005.07,0001.10,0001.18,0000.63,0001.15,0000.94,0000.69,26.3,04.4,0675.1,34.6
2016-07-07T00:14:00Z,0000388,00000608,0012.30,0008.39,0005.34,0000.89,0001.06,0000.69,0000.55,0000.80,0000.63,26.3,04.6,0675.1,34.6
2016-07-07T00:15:00Z,0000388,00000608,0012.68,0008.66,0005.31,0000.89,0001.40,0000.94,0001.29,0001.05,0000.48,26.3,04.7,0675.1,34.6
2016-07-07T00:16:00Z,0000388,00000608,0013.34,0009.11,0005.44,0001.28,0001.15,0001.25,0005.37,0004.60,0003.86,26.3,04.6,0675.1,34.6
2016-07-07T00:17:00Z,0000388,00000608,0014.92,0010.54,0006.28,0002.03,0001.37,0000.96,0011.70,0010.24,0007.81,26.3,04.7,0675.1,34.6
2016-07-07T00:18:00Z,0000388,00000608,0016.19,0011.15,0006.63,0001.77,0001.45,0001.54,0010.42,0009.31,0007.71,26.3,04.5,0675.0,34.6
2016-07-07T00:19:00Z,0000388,00000608,0014.48,0010.16,0005.84,0001.10,0001.18,0001.08,0006.50,0005.58,0004.32,26.3,04.5,0675.0,34.6
2016-07-07T00:20:00Z,0000388,00000608,0012.81,0009.56,0005.13,0000.86,0000.87,0000.45,0001.42,0001.52,0001.01,26.3,04.6,0675.0,34.6
2016-07-07T00:21:00Z,0000388,00000608,0014.02,0008.27,0006.04,0001.08,0001.00,0001.27,0000.71,0000.51,0000.55,26.2,04.6,0675.0,34.6
2016-07-07T00:22:00Z,0000388,00000608,0013.04,0008.35,0005.25,0001.13,0000.89,0001.17,0000.65,0000.66,0000.34,26.3,04.4,0675.1,34.6
2016-07-07T00:23:00Z,0000388,00000608,0012.83,0009.34,0005.39,0001.60,0000.73,0000.69,0000.90,0000.65,0000.66,26.3,04.5,0675.1,34.6
2016-07-07T00:24:00Z,0000388,00000608,0013.58,0008.49,0005.45,0000.64,0000.65,0000.81,0000.35,0000.52,0000.22,26.3,04.4,0675.0,34.6
2016-07-07T00:25:00Z,0000388,00000608,0013.79,0008.02,0004.84,0001.16,0001.17,0000.42,0000.71,0000.61,0000.61,26.3,04.6,0675.0,34.6
2016-07-07T00:26:00Z,0000388,00000608,0012.47,0008.70,0004.90,0000.78,0000.70,0000.69,0000.89,0000.50,0000.21,26.3,04.6,0675.0,34.6
2016-07-07T00:27:00Z,0000388,00000608,0013.64,0008.13,0004.86,0001.22,0001.08,0001.03,0000.27,0000.47,0000.54,26.3,04.7,0675.1,34.6
2016-07-07T00:28:00Z,0000388,00000608,0012.47,0008.78,0004.83,0000.86,0000.92,0000.81,0000.72,0000.66,0000.54,26.3,04.6,0675.1,34.6
2016-07-07T00:29:00Z,0000388,00000608,0014.96,0010.20,0006.27,0001.46,0001.62,0000.92,0009.57,0008.35,0006.59,26.3,04.6,0675.1,34.6
2016-07-07T00:30:00Z,0000388,00000608,0012.54,0008.87,0005.16,0001.35,0000.94,0000.27,0001.63,0001.31,0000.97,26.3,04.6,0675.0,34.6
2016-07-07T00:31:00Z,0000388,00000608,0012.76,0008.36,0005.53,0001.30,0000.69,0000.75,0000.64,0000.45,0000.39,26.3,04.6,0675.0,34.6
2016-07-07T00:32:00Z,0000388,00000608,0011.50,0007.82,0005.06,0000.89,0001.20,0001.07,0000.46,0000.48,0000.19,26.3,04.4,0675.0,34.6
2016-07-07T00:33:00Z,0000388,00000608,0012.77,0008.60,0004.47,0000.88,0001.14,0000.88,0000.36,0000.67,0000.71,26.3,04.5,0675.0,34.6
2016-07-07T00:34:00Z,0000388,00000608,0012.24,0008.41,0005.19,0000.78,0001.03,0000.66,0000.75,0000.46,0000.59,26.3,04.6,0675.1,34.6
2016-07-07T00:35:00Z,0000388,00000608,0013.43,0008.91,0004.92,0000.64,0000.67,0000.75,0002.77,0002.48,0001.67,26.3,04.5,0675.0,34.6
2016-07-07T00:36:00Z,0000388,00000608,0013.63,0008.67,0005.57,0001.42,0001.11,0000.60,0004.27,0003.85,0003.04,26.3,04.5,0675.1,34.6
2016-07-07T00:37:00Z,0000388,00000608,0013.55,0009.09,0005.20,0000.97,0001.18,0000.96,0001.92,0001.76,0001.34,26.3,04.6,0675.0,34.6
2016-07-07T00:38:00Z,0000388,00000608,0014.26,0008.89,0005.21,0001.11,0001.25,0000.96,0002.58,0002.14,0001.91,26.3,04.5,0675.0,34.6
2016-07-07T00:39:00Z,0000388,00000608,0017.63,0011.67,0007.33,0002.03,0001.70,0001.14,0019.06,0016.64,0013.00,26.3,04.6,0675.0,34.6
2016-07-07T00:40:00Z,0000388,00000608,0015.33,0010.88,0006.61,0001.47,0001.17,0000.83,0012.80,0011.50,0009.13,26.3,04.6,0675.0,34.6
2016-07-07T00:41:00Z,0000388,00000608,0015.07,0009.89,0005.88,0001.66,0000.98,0001.22,0007.54,0006.44,0004.71,26.3,04.5,0675.0,34.6
2016-07-07T00:42:00Z,0000388,00000608,0014.22,0008.71,0005.08,0001.53,0000.89,0000.97,0002.33,0002.26,0002.15,26.3,04.6,0675.0,34.6
2016-07-07T00:43:00Z,0000388,00000608,0011.97,0008.99,0004.65,0000.89,0000.50,0000.75,0001.09,0000.97,0000.56,26.3,04.8,0675.0,34.6
2016-07-07T00:44:00Z,0000388,00000608,0012.63,0007.75,0004.97,0000.91,0000.59,0000.61,0000.71,0000.48,0000.25,26.3,04.7,0675.0,34.6
2016-07-07T00:45:00Z,0000388,00000608,0012.13,0007.96,0004.64,0001.05,0000.62,0000.72,0000.54,0000.51,0000.48,26.3,04.8,0675.1,34.6
2016-07-07T00:46:00Z,0000388,00000608,0011.20,0008.27,0004.60,0001.30,0001.00,0000.85,0000.59,0000.57,0000.71,26.3,04.7,0675.1,34.6
2016-07-07T00:47:00Z,0000388,00000608,0011.82,0008.20,0004.67,0000.81,0000.84,0000.61,0000.49,0000.43,0000.31,26.3,04.7,0675.1,34.6
2016-07-07T00:48:00Z,0000388,00000608,0011.72,0008.27,0004.54,0000.81,0001.12,0000.77,0000.64,0000.56,0000.22,26.3,04.6,0675.1,34.6
2016-07-07T00:49:00Z,0000388,00000608,0011.93,0007.52,0004.91,0001.16,0000.78,0000.86,0000.95,0000.65,0000.56,26.3,04.5,0675.1,34.6
2016-07-07T00:50:00Z,0000388,00000608,0012.75,0008.44,0004.81,0001.33,0000.47,0000.70,0001.74,0001.56,0001.08,26.3,04.3,0675.1,34.6
2016-07-07T00:51:00Z,0000388,00000608,0011.02,0008.07,0004.55,0001.25,0000.73,0000.99,0001.24,0001.13,0001.30,26.3,04.4,0675.1,34.6
2016-07-07T00:52:00Z,0000388,00000608,0011.62,0008.09,0004.72,0001.19,0000.89,0000.89,0000.54,0000.56,0000.39,26.3,04.5,0675.1,34.6
2016-07-07T00:53:00Z,0000388,00000608,0012.46,0007.82,0004.96,0001.30,0000.98,0000.77,0000.59,0000.59,-000.13,26.3,04.6,0675.1,34.6
2016-07-07T00:54:00Z,0000388,00000608,0017.75,0012.17,0006.60,0001.88,0001.64,0000.88,0022.22,0019.13,0015.72,26.3,04.6,0675.0,34.6
2016-07-07T00:55:00Z,0000388,00000608,0012.27,0007.93,0005.22,0000.59,0001.09,0000.74,0004.03,0003.67,0002.55,26.3,04.4,0675.1,34.6
2016-07-07T00:56:00Z,0000388,00000608,0013.69,0007.96,0005.08,0001.03,0000.87,0000.97,0002.93,0002.52,0002.24,26.3,04.3,0675.0,34.6
2016-07-07T00:57:00Z,0000388,40000608,,,,,,,,,,,,0674.8,34.6
2016-07-07T00:58:00Z,0000388,60000608,,,,,,,,,,26.1,04.5,0674.1,34.6
2016-07-07T00:59:00Z,0000388,20000608,,,,,,,,,,26.0,04.5,0674.1,34.6
2016-07-07T01:00:00Z,0000388,20000608,,,,,,,,,,26.0,04.5,0674.1,34.6
2016-07-07T01:01:00Z,0000388,20000608,,,,,,,,,,26.0,04.5,0674.1,34.6
2016-07-07T01:02:00Z,0000388,20000608,,,,,,,,,,26.0,04.5,0674.1,34.6
2016-07-07T01:03:00Z,0000388,60000608,,,,,,,,,,26.1,04.5,0674.1,34.6
2016-07-07T01:04:00Z,0000388,40000608,0010.77,0007.32,0005.11,0000.39,0000.65,0000.77,0000.71,0000.69,0000.66,26.2,04.6,0675.0,34.6
2016-07-07T01:05:00Z,0000388,00000608,0011.92,0008.03,0004.73,0000.92,0001.43,0000.45,0001.52,0001.55,0001.27,26.2,04.6,0675.0,34.6
2016-07-07T01:06:00Z,0000388,00000608,0012.59,0007.88,0005.35,0001.31,0001.12,0000.61,0003.87,0003.15,0002.55,26.3,04.6,0675.0,34.6
2016-07-07T01:07:00Z,0000388,00000608,0012.96,0009.28,0005.77,0001.52,0000.97,0000.78,0008.12,0007.24,0005.42,26.3,04.7,0675.0,34.6
2016-07-07T01:08:00Z,0000388,00000608,0016.14,0011.12,0006.91,0001.55,0001.46,0000.97,0015.01,0013.04,0010.02,26.3,04.6,0675.0,34.6
2016-07-07T01:09:00Z,0000388,00000608,0014.74,0009.36,0006.53,0001.50,0001.12,0000.63,0012.36,0010.93,0009.01,26.3,04.6,0675.0,34.6
2016-07-07T01:10:00Z,0000388,00000608,0011.91,0007.87,0004.59,0000.52,0000.69,0000.55,0000.96,0000.85,0000.56,26.2,04.5,0675.1,34.6
2016-07-07T01:11:00Z,0000388,00000608,0011.88,0007.76,0004.77,0001.47,0000.25,0000.39,0000.57,0000.55,0000.26,26.3,04.5,0675.0,34.6
2016-07-07T01:12:00Z,0000388,00000608,0012.34,0007.55,0004.25,0000.64,0000.73,0000.22,0000.82,0000.51,0000.49,26.3,04.4,0675.1,34.6
2016-07-07T01:13:00Z,0000388,00000608,0010.55,0007.72,0004.61,0001.27,0000.92,0000.69,0000.32,0000.54,0000.37,26.3,04.5,0675.1,34.6
2016-07-07T01:14:00Z,0000388,00000608,0012.10,0007.32,0004.98,0001.06,0001.20,0000.69,0000.55,0000.48,0000.64,26.3,04.3,0675.0,34.6
2016-07-07T01:15:00Z,0000388,00000608,0012.01,0007.27,0004.92,0001.53,0000.76,0000.91,0000.54,0000.42,0000.26,26.3,04.3,0675.1,34.6
2016-07-07T01:16:00Z,0000388,00000608,0010.32,0007.04,0004.25,0000.83,0000.67,0000.13,0000.47,0000.40,-000.08,26.3,04.3,0675.0,34.6
2016-07-07T01:17:00Z,0000388,00000608,0010.43,0006.97,0004.12,0001.05,0000.61,0000.14,0000.29,0000.33,0000.62,26.3,04.1,0675.0,34.6
2016-07-07T01:18:00Z,0000388,00000608,0009.09,0007.53,0004.08,0000.89,0000.95,0001.05,0000.61,0000.56,0000.14,26.3,04.1,0675.1,34.6
2016-07-07T01:19:00Z,0000388,00000608,0010.76,0007.01,0004.28,0001.17,0000.98,0000.44,0000.69,0000.52,0000.29,26.2,04.1,0675.1,34.6
2016-07-07T01:20:00Z,0000388,00000608,0010.63,0007.42,0004.86,0000.99,0000.62,0000.97,0000.45,0000.43,0000.92,26.2,04.4,0675.1,34.6
2016-07-07T01:21:00Z,0000388,00000608,0010.14,0007.06,0004.50,0000.99,0001.07,0000.28,0000.50,0000.56,0000.30,26.2,04.5,0675.1,34.6
2016-07-07T01:22:00Z,0000388,00000608,0010.68,0006.61,0004.45,0000.75,0000.59,0000.28,0000.66,0000.38,0000.22,26.2,04.4,0675.1,34.6
2016-07-07T01:23:00Z,0000388,00000608,0010.08,0006.74,0004.08,0000.78,0000.73,0000.22,0000.48,0000.49,0000.54,26.2,04.6,0675.1,34.6
2016-07-07T01:24:00Z,0000388,00000608,0010.66,0006.89,0003.80,0000.64,0000.69,0000.27,0000.23,0000.33,0000.10,26.2,04.3,0675.1,34.6
2016-07-07T01:25:00Z,0000388,00000608,0011.11,0006.78,0004.70,0001.05,0000.61,0000.85,0000.69,0000.40,0000.25,26.2,04.0,0675.1,34.6
2016-07-07T01:26:00Z,0000388,00000608,0010.57,0007.09,0004.37,0001.16,0000.67,0000.19,0000.33,0000.51,0000.50,26.2,04.1,0675.1,34.6
2016-07-07T01:27:00Z,0000388,00000608,0011.05,0006.30,0004.55,0001.61,0000.75,0000.81,0000.48,0000.42,0000.17,26.2,04.7,0675.1,34.6
2016-07-07T01:28:00Z,0000388,00000608,0010.01,0007.31,0004.00,0000.92,0001.00,0000.00,0000.27,0000.47,0000.45,26.2,04.7,0675.1,34.6
2016-07-07T01:29:00Z,0000388,00000608,0010.20,0006.16,0004.20,0001.06,0000.73,0000.50,0000.67,0000.55,0000.72,26.2,04.9,0675.1,34.6
2016-07-07T01:30:00Z,0000388,00000608,0009.70,0006.64,0003.80,0000.52,0000.40,0000.41,0000.36,0000.31,0000.19,26.2,04.9,0675.2,34.6
2016-07-07T01:31:00Z,0000388,00000608,0008.65,0007.22,0004.21,0000.78,0000.86,0000.36,0000.33,0000.36,0000.17,26.2,05.0,0675.1,34.6
2016-07-07T01:32:00Z,0000388,00000608,0011.02,0006.86,0004.03,0000.86,0000.73,0000.20,0000.60,0000.42,0000.41,26.2,05.0,0675.1,34.6
2016-07-07T01:33:00Z,0000388,00000608,0009.50,0006.60,0003.82,0000.78,0000.67,0000.31,0000.37,0000.46,0000.11,26.2,05.0,0675.1,34.6
2016-07-07T01:34:00Z,0000388,00000608,0008.72,0006.03,0003.67,0001.03,0000.42,0000.60,0000.37,0000.29,0000.46,26.2,05.1,0675.1,34.6
2016-07-07T01:35:00Z,0000388,00000608,0010.06,0005.84,0003.43,0001.14,0000.59,0000.38,0000.49,0000.39,0000.14,26.2,05.1,0675.2,34.6
2016-07-07T01:36:00Z,0000388,00000608,0008.74,0006.31,0003.63,0001.08,0000.44,0000.50,0000.50,0000.30,0000.17,26.2,05.1,0675.2,34.6
2016-07-07T01:37:00Z,0000388,00000608,0009.70,0006.48,0003.84,0001.30,0000.76,0000.78,0000.37,0000.42,0000.47,26.2,05.1,0675.2,34.6
2016-07-07T01:38:00Z,0000388,00000608,0008.91,0006.14,0004.20,0001.19,0000.50,0000.44,0000.44,0000.43,0000.34,26.2,05.1,0675.2,34.6
2016-07-07T01:39:00Z,0000380,00000600,0009.50,0005.89,0003.44,0000.08,0000.79,0000.31,0000.45,0000.23,0000.26,26.2,05.1,0675.1,34.6
2016-07-07T01:40:00Z,0000380,00000600,0010.09,0005.88,0003.70,0001.75,0000.51,0000.38,0000.58,0000.50,0000.25,26.2,05.1,0675.2,34.6
2016-07-07T01:41:00Z,0000380,00000600,0008.32,0006.28,0003.57,0000.36,0001.04,0000.25,0000.16,0000.29,0000.18,26.2,05.1,0675.2,34.6
2016-07-07T01:42:00Z,0000380,00000600,0008.70,0006.12,0003.55,0001.06,0000.64,0000.41,0000.41,0000.45,0000.24,26.2,05.1,0675.2,34.6
2016-07-07T01:43:00Z,0000380,00000600,0009.53,0005.19,0003.64,0001.20,0000.56,0000.64,0000.44,0000.30,0000.39,26.2,05.2,0675.2,34.6
2016-07-07T01:44:00Z,0000380,00000600,0008.83,0005.80,0003.26,0000.97,0000.61,0000.23,0000.33,0000.48,0000.26,26.2,05.2,0675.2,34.6
2016-07-07T01:45:00Z,0000380,00000600,0008.15,0006.11,0003.85,0000.45,0000.67,0000.91,0000.57,0000.41,0000.34,26.2,05.2,0675.2,34.6
2016-07-07T01:46:00Z,0000380,00000600,0008.04,0005.94,0003.57,0001.27,0000.39,0000.56,0000.22,0000.38,0000.33,26.2,05.2,0675.2,34.6
2016-07-07T01:47:00Z,0000380,00000600,0008.39,0006.07,0003.03,0001.17,0000.55,0000.27,0000.31,0000.16,0000.23,26.2,05.2,0675.2,34.6
2016-07-07T01:48:00Z,0000380,00000600,0008.95,0006.08,0004.22,0000.55,0001.21,0000.55,0000.54,0000.35,0000.28,26.2,05.2,0675.2,34.6
2016-07-07T01:49:00Z,0000380,00000600,0009.41,0006.28,0003.59,-000.03,0000.59,0000.41,0000.39,0000.31,0000.34,26.2,05.1,0675.2,34.6
2016-07-07T01:50:00Z,0000380,00000600,0008.95,0005.10,0003.25,0001.36,0000.72,-000.02,0000.49,0000.45,0000.01,26.2,05.1,0675.2,34.6
2016-07-07T01:51:00Z,0000380,00000600,0008.29,0005.50,0002.89,0000.86,0000.36,0000.33,0000.33,0000.38,0000.53,26.2,05.1,0675.2,34.6
2016-07-07T01:52:00Z,0000380,00000600,0007.62,0005.45,0004.02,0001.14,0000.73,0000.28,0000.28,0000.38,0000.22,26.2,05.1,0675.2,34.6
2016-07-07T01:53:00Z,0000380,00000600,0008.86,0005.60,0003.32,0000.63,0000.48,0000.28,0000.51,0000.27,-000.02,26.2,05.0,0675.2,34.6
2016-07-07T01:54:00Z,0000380,00000600,0008.10,0006.72,0003.47,0000.84,0001.09,0000.39,0000.28,0000.29,0000.57,26.2,05.1,0675.2,34.6
2016-07-07T01:55:00Z,0000380,00000600,0007.90,0005.90,0003.26,0000.89,0000.42,0000.44,0000.27,0000.25,0000.04,26.2,05.1,0675.2,34.6
2016-07-07T01:56:00Z,0000380,00000600,0008.61,0005.56,0003.15,0001.28,0000.64,0000.72,0000.46,0000.37,0000.39,26.2,05.1,0675.2,34.6
2016-07-07T01:57:00Z,0000380,40000600,,,,,,,,,,,,0675.0,34.6
2016-07-07T01:58:00Z,0000380,60000600,,,,,,,,,,26.0,04.9,0674.3,34.6
2016-07-07T01:59:00Z,0000380,20000600,,,,,,,,,,26.0,05.0,0674.3,34.6
2016-07-07T02:00:00Z,0000380,20000600,,,,,,,,,,26.0,05.0,0674.3,34.6
2016-07-07T02:01:00Z,0000380,20000600,,,,,,,,,,26.0,05.0,0674.3,34.6
2016-07-07T02:02:00Z,0000380,20000600,,,,,,,,,,26.0,05.0,0674.3,34.6
2016-07-07T02:03:00Z,0000380,60000600,,,,,,,,,,26.1,05.0,0674.3,34.6
2016-07-07T02:04:00Z,0000380,40000600,0006.90,0004.59,0002.95,0001.02,0000.53,0000.49,0000.26,0000.26,0000.31,26.2,05.2,0675.1,34.6
2016-07-07T02:05:00Z,0000380,00000600,0006.20,0005.21,0002.85,0000.74,-000.11,0000.42,0000.41,0000.29,-000.03,26.2,05.2,0675.2,34.6
2016-07-07T02:06:00Z,0000380,00000600,0007.51,0004.59,0002.53,0001.03,0000.56,0000.30,0000.41,0000.37,0000.63,26.2,05.2,0675.1,34.6
2016-07-07T02:07:00Z,0000380,00000600,0007.28,0005.14,0002.87,0000.48,0000.58,-000.05,0000.37,0000.33,0000.02,26.2,05.2,0675.2,34.6
2016-07-07T02:08:00Z,0000380,00000600,0006.87,0004.48,0003.29,0000.45,0000.47,0000.33,0000.56,0000.43,0000.39,26.3,05.2,0675.2,34.6
2016-07-07T02:09:00Z,0000380,00000600,0007.15,0004.85,0002.89,0000.56,0000.89,0000.64,0000.10,0000.07,0000.47,26.2,05.2,0675.2,34.6
2016-07-07T02:10:00Z,0000380,00000600,0006.79,0004.41,0002.90,0000.52,0000.22,0000.47,0000.56,0000.30,0000.19,26.2,05.3,0675.2,34.6
2016-07-07T02:11:00Z,0000380,00000600,0006.59,0004.09,0002.26,0000.94,0000.48,0000.55,0000.34,0000.34,0000.07,26.2,05.2,0675.1,34.6
2016-07-07T02:12:00Z,0000380,00000600,0007.41,0004.58,0002.14,0000.91,0000.58,0000.14,0000.32,0000.20,0000.20,26.2,05.2,0675.1,34.6
2016-07-07T02:13:00Z,0000380,00000600,0006.57,0004.72,0002.37,0000.41,0000.69,0000.41,0000.18,0000.41,0000.33,26.2,05.2,0675.1,34.6
2016-07-07T02:14:00Z,0000380,00000600,0006.19,0004.58,0002.31,0000.45,0000.55,0000.17,0000.17,0000.33,-000.11,26.2,05.1,0675.1,34.6
2016-07-07T02:15:00Z,0000380,00000600,0006.87,0004.34,0002.56,0000.89,0000.09,0000.58,0000.50,0000.16,0000.09,26.2,05.0,0675.1,34.6
2016-07-07T02:16:00Z,0000380,00000600,0007.10,0004.71,0002.64,0000.28,0000.19,0000.13,0000.30,0000.44,0000.61,26.2,04.8,0675.1,34.6
2016-07-07T02:17:00Z,0000380,00000600,0006.91,0004.88,0002.23,0001.24,0000.50,0000.13,0000.37,0000.11,0000.03,26.2,04.9,0675.1,34.6
2016-07-07T02:18:00Z,0000380,00000600,0005.89,0004.72,0003.22,0000.50,0000.25,0000.56,0000.50,0000.34,0000.18,26.2,04.7,0675.1,34.6
2016-07-07T02:19:00Z,0000380,00000600,0007.28,0004.85,0002.46,0001.06,0000.45,0000.33,0000.21,0000.42,0000.34,26.2,04.7,0675.1,34.6
2016-07-07T02:20:00Z,0000380,00000600,0006.69,0004.52,0002.29,0000.22,0000.34,0000.38,0000.36,0000.26,0000.10,26.2,04.7,0675.1,34.6
2016-07-07T02:21:00Z,0000380,00000600,0007.87,0004.02,0002.18,0000.70,0000.58,-000.08,0000.41,0000.34,0000.34,26.3,04.8,0675.1,34.6
2016-07-07T02:22:00Z,0000380,00000600,0006.06,0004.93,0002.26,0000.97,0000.55,0000.30,0000.18,0000.24,0000.30,26.2,04.8,0675.2,34.6
2016-07-07T02:23:00Z,0000380,00000600,0006.07,0004.62,0002.75,0000.75,0000.41,0000.41,0000.42,0000.25,0000.22,26.3,04.9,0675.2,34.6
2016-07-07T02:24:00Z,0000380,00000600,0006.11,0004.22,0001.89,0000.52,0000.56,0000.23,0000.20,0000.34,0000.14,26.3,04.9,0675.1,34.6
2016-07-07T02:25:00Z,0000380,00000600,0006.95,0004.26,0002.00,0000.74,0000.22,0000.30,0000.26,0000.34,0000.17,26.3,05.0,0675.1,34.6
2016-07-07T02:26:00Z,0000380,00000600,0006.47,0004.74,0002.73,0000.59,0000.34,0000.47,0000.54,0000.37,0000.48,26.2,05.0,0675.1,34.6
2016-07-07T02:27:00Z,0000380,00000600,0006.90,0004.84,0002.72,0000.64,0000.40,0000.22,0000.21,0000.06,-000.17,26.2,05.0,0675.1,34.6
2016-07-07T02:28:00Z,0000380,00000600,0007.27,0004.39,0002.33,0001.19,0000.48,0000.17,0000.42,0000.36,0000.36,26.2,04.4,0675.1,34.6
2016-07-07T02:29:00Z,0000380,00000600,0006.52,0005.15,0002.70,0000.47,0000.51,0000.27,0000.31,0000.41,0000.30,26.2,04.5,0675.2,34.6
2016-07-07T02:30:00Z,0000380,00000600,0005.63,0004.21,0002.31,0000.53,0000.22,0000.25,0000.20,0000.20,0000.48,26.2,04.7,0675.1,34.6
2016-07-07T02:31:00Z,0000380,00000600,0006.43,0004.47,0002.15,0000.88,0000.30,0000.39,0000.47,0000.34,0000.04,26.3,04.8,0675.1,34.6
2016-07-07T02:32:00Z,0000380,00000600,0006.45,0004.56,0002.79,0000.53,0000.34,-000.19,0000.32,0000.15,0000.06,26.2,04.9,0675.1,34.6
2016-07-07T02:33:00Z,0000380,00000600,0005.55,0003.92,0002.22,0000.81,0000.16,0000.20,0000.21,0000.28,0000.44,26.3,04.9,0675.1,34.6
2016-07-07T02:34:00Z,0000380,00000600,0006.02,0004.55,0002.79,0001.30,0000.93,0000.30,-000.10,0000.19,-000.04,26.2,04.9,0675.1,34.6
2016-07-07T02:35:00Z,0000380,00000600,0005.75,0004.21,0002.60,0001.20,0000.55,0000.22,0000.61,0000.29,0000.13,26.2,04.8,0675.1,34.6
2016-07-07T02:36:00Z,0000380,00000600,0005.20,0004.72,0002.13,0000.75,0000.62,0000.36,0000.26,0000.35,0000.07,26.3,04.7,0675.1,34.6
2016-07-07T02:37:00Z,0000380,00000600,0005.89,0004.98,0002.02,0000.56,0000.50,0000.52,0000.33,0000.21,0000.27,26.2,04.8,0675.1,34.6
2016-07-07T02:38:00Z,0000380,00000600,0006.07,0004.44,0002.12,0000.52,0000.39,0000.20,0000.31,0000.34,0000.23,26.3,04.9,0675.1,34.6
2016-07-07T02:39:00Z,0000380,00000600,0006.09,0003.82,0002.15,0000.92,0001.06,0000.25,0000.53,0000.09,0000.26,26.3,04.9,0675.2,34.6
2016-07-07T02:40:00Z,0000380,00000600,0005.27,0003.74,0002.07,0000.00,0000.33,0000.05,0000.22,0000.36,0000.27,26.2,04.9,0675.2,34.6
2016-07-07T02:41:00Z,0000380,00000600,0005.64,0004.06,0002.28,0000.56,0000.33,0000.20,0000.12,0000.35,0000.55,26.2,04.9,0675.2,34.6
2016-07-07T02:42:00Z,0000380,00000600,0006.11,0004.24,0002.42,0000.69,0000.50,0000.33,0000.43,0000.17,-000.05,26.2,05.0,0675.1,34.6
2016-07-07T02:43:00Z,0000380,00000600,0005.60,0003.77,0001.92,0000.55,0000.36,0000.14,0000.57,0000.21,0000.30,26.2,04.9,0675.2,34.6
2016-07-07T02:44:00Z,0000380,00000600,0005.45,0004.10,0002.09,0000.88,0000.40,0000.88,0000.01,0000.27,0000.37,26.2,04.9,0675.1,34.6
2016-07-07T02:45:00Z,0000380,00000600,0005.61,0004.06,0002.00,0000.36,0000.97,0000.02,0000.40,0000.25,0000.18,26.2,05.0,0675.1,34.6
2016-07-07T02:46:00Z,0000380,00000600,0005.56,0003.79,0001.51,0001.22,0000.30,-000.06,0000.19,0000.10,0000.03,26.2,05.0,0675.1,34.6
2016-07-07T02:47:00Z,0000380,00000600,0005.59,0003.50,0002.01,0000.58,0000.09,0000.08,0000.20,0000.38,0000.23,26.2,05.0,0675.1,34.6
2016-07-07T02:48:00Z,0000380,00000600,0005.91,0003.83,0002.47,0000.50,0000.47,0000.20,0000.25,0000.27,-000.04,26.2,05.1,0675.1,34.6
2016-07-07T02:49:00Z,0000380,00000600,0004.54,0003.86,0002.42,0000.59,0000.53,0000.02,0000.13,0000.17,0000.38,26.2,05.1,0675.1,34.6
2016-07-07T02:50:00Z,0000380,00000600,0005.70,0003.77,0001.79,0000.36,0000.28,0000.27,0000.29,0000.23,0000.01,26.2,05.1,0675.1,34.6
2016-07-07T02:51:00Z,0000380,00000600,0006.04,0004.00,0002.13,0001.00,0000.20,0000.44,0000.25,0000.26,0000.38,26.2,05.2,0675.1,34.6
2016-07-07T02:52:00Z,0000380,00000600,0005.66,0003.52,0002.08,0000.16,0000.51,-000.02,0000.14,0000.06,0000.16,26.2,05.1,0675.1,34.6
2016-07-07T02:53:00Z,0000380,00000600,0005.54,0003.18,0002.02,0000.34,0000.39,0000.36,0000.58,0000.43,0000.43,26.3,05.1,0675.1,34.6
2016-07-07T02:54:00Z,0000380,00000600,0005.91,0003.68,0001.98,0000.23,0000.53,0000.49,0000.17,0000.35,-000.05,26.3,05.1,0675.2,34.6
2016-07-07T02:55:00Z,0000380,00000600,0005.58,0003.31,0002.08,0000.78,0000.47,0000.16,0000.45,0000.16,0000.46,26.3,05.1,0675.2,34.6
2016-07-07T02:56:00Z,0000380,00000600,0005.36,0003.44,0001.74,0000.74,0000.42,0000.42,0000.49,0000.37,-000.06,26.3,05.1,0675.2,34.6
2016-07-07T02:57:00Z,0000380,40000600,,,,,,,,,,,,0674.9,34.6
2016-07-07T02:58:00Z,0000380,60000600,,,,,,,,,,26.0,05.1,0674.3,34.6
2016-07-07T02:59:00Z,0000380,20000600,,,,,,,,,,26.0,05.1,0674.3,34.6
2016-07-07T03:00:00Z,0000380,20000600,,,,,,,,,,26.0,05.1,0674.3,34.6
2016-07-07T03:01:00Z,0000380,20000600,,,,,,,,,,26.0,05.1,0674.3,34.6
2016-07-07T03:02:00Z,0000380,20000600,,,,,,,,,,26.0,05.1,0674.2,34.6
2016-07-07T03:03:00Z,0000380,60000600,,,,,,,,,,26.0,05.1,0674.2,34.6
2016-07-07T03:04:00Z,0000380,40000600,0006.05,0004.19,0002.01,0000.50,-000.06,0000.31,0000.04,0000.14,-000.24,26.2,05.2,0675.0,34.6
2016-07-07T03:05:00Z,0000380,00000600,0004.92,0003.66,0002.04,0000.22,0000.33,0000.36,0000.06,0000.19,0000.31,26.2,05.2,0675.1,34.6
2016-07-07T03:06:00Z,0000380,00000600,0005.57,0004.14,0002.23,-000.34,0000.36,0000.22,0000.14,0000.25,-000.12,26.2,05.0,0675.0,34.6
2016-07-07T03:07:00Z,0000380,00000600,0005.55,0003.74,0002.28,0000.89,0000.25,0000.11,0000.57,0000.23,0000.34,26.2,05.0,0675.0,34.6
2016-07-07T03:08:00Z,0000380,00000600,0005.62,0003.33,0002.11,0000.59,0000.31,0000.06,0000.36,0000.24,0000.20,26.3,05.0,0675.1,34.6
2016-07-07T03:09:00Z,0000380,00000600,0004.93,0003.88,0001.73,0000.38,0000.58,0000.31,0000.43,0000.54,0000.44,26.3,05.1,0675.1,34.6
2016-07-07T03:10:00Z,0000380,00000600,0005.86,0003.82,0001.95,0000.70,0000.25,0000.06,0000.27,-000.06,0000.11,26.3,05.1,0675.1,34.6
2016-07-07T03:11:00Z,0000380,00000600,0004.42,0003.72,0001.91,0000.09,0000.25,0000.14,0000.24,0000.25,0000.23,26.2,05.2,0675.1,34.6
2016-07-07T03:12:00Z,0000380,00000600,0004.80,0003.38,0001.66,0000.05,0000.05,0000.23,0000.09,0000.37,-000.08,26.2,05.2,0675.1,34.6